Погода в Верхнем Куркужине

Россия / Кабардино-Балкарская Республика     43°41′32″N   43°16′42″E
темп.,
°C
ветер,
м/с
пор.,
м/с
влажн.,
%
обл.,
%
осадки,
мм/ч
давл.,
гПа
погр.,
м
15 апреля, чт
чт1500:00+6з228299 0.0 101811
03:00+5зюз336449 0.0 101931
06:00+5зюз22625 0.0 101917
09:00+12св11492 0.0 1017584
12:00+15всв3240100 0.0 10161621
15:00+16всв4341100 0.0 10151796
18:00+13всв2253100 0.0 101758
21:00+10вюв1264100 0.0 101813
16 апреля, пт
пт1600:00+9ю117016 0.0 101810
03:00+7юз21758 0.0 101910
06:00+8ююз22727 0.0 101912
09:00+13вюв46515 0.0 1018839
12:00+16вюв77472 0.0 10171373
15:00+17вюв77457 0.0 10161539
18:00+15вюв5856100 0.2 1016453
21:00+10з2282100 2.0 102023
17 апреля, сб
сб1700:00+10ююз227860 0.0 101911
03:00+8св1187100 0.0 101810
06:00+9ссз1287100 0.0 101953
09:00+10сз5785100 0.0 1021814
12:00+7ссз3491100 0.6 1023550
15:00+7ссв2392100 0.8 1023373
18:00+7св1194100 0.4 1024168
21:00+7юв1293100 0.6 1024151
18 апреля, вс
вс1800:00+6в1195100 0.0 1022138
03:00+7ююв1194100 0.1 1022105
06:00+7вюв2394100 0.0 1020139
09:00+10вюв448187 0.0 1018562
12:00+12вюв547792 0.1 1017667
15:00+11юв458332 0.5 1015412
18:00+12в348695 2.0 1016519
21:00+11юв129499 3.7 1018103
19 апреля, пн
пн1900:00+10ююз2292100 0.0 101711
03:00+10ююз2275100 0.0 101616
06:00+11юз3362100 0.0 101521
09:00+16св225299 0.0 1015374
12:00+18всв435795 0.0 1014969
15:00+19в546062 0.0 10131244
18:00+17в4769100 0.1 1013473
21:00+13юв2380100 0.1 101262